Time,TemperatureF,DewpointF,PressureIn,WindDirection,WindDirectionDegrees,WindSpeedMPH,WindSpeedGustMPH,Humidity,HourlyPrecipIn,Conditions,Clouds,dailyrainin,SolarRadiationWatts/m^2,SoftwareType,DateUTC
2013-02-09 00:05:00,41.8,29.0,30.08,West,277,2.0,5.0,61,0.00,,,0.00,0,weatherlink.com 1.10,2013-02-09 05:05:00,
2013-02-09 00:20:00,41.3,29.0,30.08,WSW,257,1.0,4.0,62,0.00,,,0.00,0,weatherlink.com 1.10,2013-02-09 05:20:00,
2013-02-09 00:35:00,40.9,29.0,30.08,West,281,2.0,6.0,63,0.00,,,0.00,0,weatherlink.com 1.10,2013-02-09 05:35:00,
2013-02-09 00:50:00,40.4,29.0,30.07,WSW,254,0.0,4.0,64,0.00,,,0.00,0,weatherlink.com 1.10,2013-02-09 05:50:00,
2013-02-09 01:05:00,39.8,29.0,30.08,WSW,254,2.0,4.0,65,0.00,,,0.00,0,weatherlink.com 1.10,2013-02-09 06:05:00,
2013-02-09 01:20:00,39.7,29.0,30.08,WNW,290,0.0,4.0,65,0.00,,,0.00,0,weatherlink.com 1.10,2013-02-09 06:20:00,
2013-02-09 01:35:00,39.8,28.0,30.08,WNW,302,0.0,5.0,64,0.00,,,0.00,0,weatherlink.com 1.10,2013-02-09 06:35:00,
2013-02-09 01:50:00,39.2,28.0,30.08,WNW,284,0.0,2.0,65,0.00,,,0.00,0,weatherlink.com 1.10,2013-02-09 06:50:00,
2013-02-09 02:05:00,38.7,28.0,30.09,WSW,240,0.0,3.0,66,0.00,,,0.00,0,weatherlink.com 1.10,2013-02-09 07:05:00,
2013-02-09 02:20:00,37.9,28.0,30.09,WSW,240,0.0,0.0,68,0.00,,,0.00,0,weatherlink.com 1.10,2013-02-09 07:20:00,
2013-02-09 02:35:00,37.5,28.0,30.09,WSW,240,0.0,0.0,69,0.00,,,0.00,0,weatherlink.com 1.10,2013-02-09 07:35:00,
2013-02-09 02:50:00,36.6,28.0,30.10,WSW,240,0.0,0.0,72,0.00,,,0.00,0,weatherlink.com 1.10,2013-02-09 07:50:00,
2013-02-09 03:06:00,34.6,29.0,30.09,WSW,240,0.0,0.0,79,0.00,,,0.00,0,weatherlink.com 1.10,2013-02-09 08:06:00,
2013-02-09 03:21:00,33.3,28.0,30.09,WSW,240,0.0,0.0,82,0.00,,,0.00,0,weatherlink.com 1.10,2013-02-09 08:21:00,
2013-02-09 03:36:00,32.3,28.0,30.10,WSW,240,0.0,2.0,84,0.00,,,0.00,0,weatherlink.com 1.10,2013-02-09 08:36:00,
2013-02-09 03:51:00,31.6,28.0,30.11,SE,126,0.0,2.0,86,0.00,,,0.00,0,weatherlink.com 1.10,2013-02-09 08:51:00,
2013-02-09 04:06:00,31.0,28.0,30.11,SE,126,0.0,0.0,88,0.00,,,0.00,0,weatherlink.com 1.10,2013-02-09 09:06:00,
2013-02-09 04:21:00,30.3,28.0,30.12,SE,126,0.0,0.0,89,0.00,,,0.00,0,weatherlink.com 1.10,2013-02-09 09:21:00,
2013-02-09 04:36:00,29.8,27.0,30.13,SSE,163,0.0,1.0,90,0.00,,,0.00,0,weatherlink.com 1.10,2013-02-09 09:36:00,
2013-02-09 04:51:00,29.4,27.0,30.14,SSE,163,0.0,0.0,91,0.00,,,0.00,0,weatherlink.com 1.10,2013-02-09 09:51:00,
2013-02-09 05:06:00,29.2,27.0,30.15,SSE,163,0.0,0.0,91,0.00,,,0.00,0,weatherlink.com 1.10,2013-02-09 10:06:00,
2013-02-09 05:21:00,28.7,26.0,30.16,SSE,163,0.0,0.0,91,0.00,,,0.00,0,weatherlink.com 1.10,2013-02-09 10:21:00,
2013-02-09 05:36:00,28.4,26.0,30.17,SSE,163,0.0,0.0,92,0.00,,,0.00,0,weatherlink.com 1.10,2013-02-09 10:36:00,
2013-02-09 05:51:00,28.2,26.0,30.18,SSE,163,1.0,1.0,92,0.00,,,0.00,0,weatherlink.com 1.10,2013-02-09 10:51:00,
2013-02-09 06:06:00,28.1,26.0,30.19,SSE,163,0.0,0.0,93,0.00,,,0.00,0,weatherlink.com 1.10,2013-02-09 11:06:00,
2013-02-09 06:21:00,28.0,26.0,30.20,ESE,120,0.0,2.0,93,0.00,,,0.00,0,weatherlink.com 1.10,2013-02-09 11:21:00,
2013-02-09 06:36:00,27.5,26.0,30.20,SW,232,0.0,2.0,93,0.00,,,0.00,0,weatherlink.com 1.10,2013-02-09 11:36:00,
2013-02-09 06:51:00,27.5,26.0,30.21,SW,233,0.0,0.0,94,0.00,,,0.00,0,weatherlink.com 1.10,2013-02-09 11:51:00,
2013-02-09 07:06:00,27.7,26.0,30.21,SW,233,0.0,2.0,94,0.00,,,0.00,0,weatherlink.com 1.10,2013-02-09 12:06:00,
2013-02-09 07:21:00,27.4,26.0,30.22,SW,232,0.0,2.0,94,0.00,,,0.00,11,weatherlink.com 1.10,2013-02-09 12:21:00,
2013-02-09 07:36:00,27.6,26.0,30.24,SW,233,0.0,1.0,94,0.00,,,0.00,21,weatherlink.com 1.10,2013-02-09 12:36:00,
2013-02-09 07:51:00,28.1,27.0,30.25,SW,232,0.0,0.0,94,0.00,,,0.00,28,weatherlink.com 1.10,2013-02-09 12:51:00,
2013-02-09 08:07:00,28.8,27.0,30.25,SW,232,0.0,2.0,94,0.00,,,0.00,121,weatherlink.com 1.10,2013-02-09 13:07:00,
2013-02-09 08:37:00,34.3,30.0,30.27,WNW,295,0.0,1.0,84,0.00,,,0.00,220,weatherlink.com 1.10,2013-02-09 13:37:00,
2013-02-09 08:52:00,37.0,29.0,30.27,North,360,0.0,6.0,74,0.00,,,0.00,258,weatherlink.com 1.10,2013-02-09 13:52:00,
2013-02-09 09:07:00,39.2,31.0,30.27,NW,315,1.0,7.0,71,0.00,,,0.00,309,weatherlink.com 1.10,2013-02-09 14:07:00,
2013-02-09 09:22:00,40.9,29.0,30.27,SW,222,2.0,8.0,62,0.00,,,0.00,357,weatherlink.com 1.10,2013-02-09 14:22:00,
2013-02-09 09:37:00,42.0,26.0,30.28,WNW,289,3.0,7.0,54,0.00,,,0.00,399,weatherlink.com 1.10,2013-02-09 14:37:00,
2013-02-09 09:52:00,42.6,26.0,30.28,NW,314,1.0,8.0,53,0.00,,,0.00,439,weatherlink.com 1.10,2013-02-09 14:52:00,
2013-02-09 10:07:00,43.6,25.0,30.29,NNW,346,1.0,8.0,48,0.00,,,0.00,476,weatherlink.com 1.10,2013-02-09 15:07:00,
2013-02-09 10:22:00,44.3,25.0,30.29,WSW,240,0.0,8.0,47,0.00,,,0.00,512,weatherlink.com 1.10,2013-02-09 15:22:00,
2013-02-09 10:37:00,44.6,23.0,30.30,WNW,295,4.0,9.0,43,0.00,,,0.00,545,weatherlink.com 1.10,2013-02-09 15:37:00,
2013-02-09 10:52:00,45.4,23.0,30.30,WNW,294,0.0,9.0,42,0.00,,,0.00,571,weatherlink.com 1.10,2013-02-09 15:52:00,
2013-02-09 11:07:00,46.7,23.0,30.30,West,269,0.0,8.0,39,0.00,,,0.00,598,weatherlink.com 1.10,2013-02-09 16:07:00,
2013-02-09 11:22:00,47.2,22.0,30.30,NW,310,2.0,6.0,37,0.00,,,0.00,622,weatherlink.com 1.10,2013-02-09 16:22:00,
2013-02-09 11:37:00,47.8,23.0,30.30,NNE,26,4.0,7.0,38,0.00,,,0.00,638,weatherlink.com 1.10,2013-02-09 16:37:00,
2013-02-09 11:53:00,48.5,20.0,30.30,NNW,327,2.0,8.0,33,0.00,,,0.00,650,weatherlink.com 1.10,2013-02-09 16:53:00,
2013-02-09 12:08:00,48.5,21.0,30.30,NNE,15,2.0,5.0,34,0.00,,,0.00,657,weatherlink.com 1.10,2013-02-09 17:08:00,
2013-02-09 12:23:00,49.0,22.0,30.29,NNW,339,1.0,8.0,34,0.00,,,0.00,663,weatherlink.com 1.10,2013-02-09 17:23:00,
2013-02-09 12:38:00,49.9,22.0,30.29,SW,227,4.0,5.0,33,0.00,,,0.00,668,weatherlink.com 1.10,2013-02-09 17:38:00,
2013-02-09 12:53:00,49.5,20.0,30.28,NE,48,2.0,8.0,31,0.00,,,0.00,664,weatherlink.com 1.10,2013-02-09 17:53:00,
2013-02-09 13:08:00,49.8,19.0,30.28,West,271,0.0,5.0,29,0.00,,,0.00,635,weatherlink.com 1.10,2013-02-09 18:08:00,
2013-02-09 13:23:00,49.9,22.0,30.27,North,360,1.0,11.0,33,0.00,,,0.00,387,weatherlink.com 1.10,2013-02-09 18:23:00,
2013-02-09 13:38:00,50.7,21.0,30.28,WNW,298,1.0,7.0,31,0.00,,,0.00,211,weatherlink.com 1.10,2013-02-09 18:38:00,
2013-02-09 13:53:00,51.3,21.0,30.27,SW,218,2.0,6.0,31,0.00,,,0.00,199,weatherlink.com 1.10,2013-02-09 18:53:00,
2013-02-09 14:08:00,51.3,20.0,30.27,WSW,248,6.0,8.0,29,0.00,,,0.00,246,weatherlink.com 1.10,2013-02-09 19:08:00,
2013-02-09 14:23:00,51.5,20.0,30.27,WSW,241,0.0,8.0,29,0.00,,,0.00,432,weatherlink.com 1.10,2013-02-09 19:23:00,
2013-02-09 14:38:00,52.1,20.0,30.27,West,259,6.0,8.0,28,0.00,,,0.00,127,weatherlink.com 1.10,2013-02-09 19:38:00,
2013-02-09 14:53:00,52.4,18.0,30.27,SW,225,0.0,7.0,26,0.00,,,0.00,192,weatherlink.com 1.10,2013-02-09 19:53:00,
2013-02-09 15:08:00,52.5,19.0,30.27,WSW,255,6.0,10.0,27,0.00,,,0.00,438,weatherlink.com 1.10,2013-02-09 20:08:00,
2013-02-09 15:23:00,52.7,18.0,30.27,NE,37,1.0,4.0,26,0.00,,,0.00,218,weatherlink.com 1.10,2013-02-09 20:23:00,
2013-02-09 15:38:00,52.7,19.0,30.27,WSW,242,6.0,8.0,27,0.00,,,0.00,178,weatherlink.com 1.10,2013-02-09 20:38:00,
2013-02-09 15:53:00,52.8,19.0,30.27,NW,304,0.0,4.0,27,0.00,,,0.00,221,weatherlink.com 1.10,2013-02-09 20:53:00,
2013-02-09 16:08:00,52.9,20.0,30.27,WSW,250,2.0,6.0,27,0.00,,,0.00,294,weatherlink.com 1.10,2013-02-09 21:08:00,
2013-02-09 16:23:00,53.2,19.0,30.27,NNW,338,2.0,4.0,26,0.00,,,0.00,246,weatherlink.com 1.10,2013-02-09 21:23:00,
2013-02-09 16:38:00,53.0,21.0,30.28,WNW,287,0.0,5.0,29,0.00,,,0.00,190,weatherlink.com 1.10,2013-02-09 21:38:00,
2013-02-09 16:53:00,52.8,20.0,30.29,NNW,327,2.0,7.0,28,0.00,,,0.00,132,weatherlink.com 1.10,2013-02-09 21:53:00,
2013-02-09 17:08:00,52.5,22.0,30.30,NNE,25,0.0,3.0,30,0.00,,,0.00,79,weatherlink.com 1.10,2013-02-09 22:08:00,
2013-02-09 17:23:00,51.9,22.0,30.31,West,262,0.0,3.0,31,0.00,,,0.00,19,weatherlink.com 1.10,2013-02-09 22:23:00,
2013-02-09 17:38:00,49.9,21.0,30.31,West,259,1.0,2.0,32,0.00,,,0.00,12,weatherlink.com 1.10,2013-02-09 22:38:00,
2013-02-09 17:53:00,48.9,21.0,30.30,WSW,254,0.0,0.0,33,0.00,,,0.00,0,weatherlink.com 1.10,2013-02-09 22:53:00,
2013-02-09 18:08:00,47.0,23.0,30.31,WSW,254,0.0,0.0,39,0.00,,,0.00,0,weatherlink.com 1.10,2013-02-09 23:08:00,
2013-02-09 18:23:00,44.7,23.0,30.31,WSW,254,0.0,0.0,43,0.00,,,0.00,0,weatherlink.com 1.10,2013-02-09 23:23:00,
2013-02-09 18:38:00,43.1,23.0,30.31,WSW,254,0.0,1.0,46,0.00,,,0.00,0,weatherlink.com 1.10,2013-02-09 23:38:00,
2013-02-09 18:53:00,41.1,28.0,30.31,WSW,254,0.0,1.0,61,0.00,,,0.00,0,weatherlink.com 1.10,2013-02-09 23:53:00,
2013-02-09 19:08:00,39.4,26.0,30.32,WSW,254,0.0,0.0,60,0.00,,,0.00,0,weatherlink.com 1.10,2013-02-10 00:08:00,
2013-02-09 19:23:00,38.0,25.0,30.32,WSW,254,0.0,1.0,61,0.00,,,0.00,0,weatherlink.com 1.10,2013-02-10 00:23:00,
2013-02-09 19:38:00,37.3,27.0,30.33,WSW,254,0.0,0.0,66,0.00,,,0.00,0,weatherlink.com 1.10,2013-02-10 00:38:00,
2013-02-09 19:53:00,36.2,27.0,30.33,WSW,254,0.0,0.0,70,0.00,,,0.00,0,weatherlink.com 1.10,2013-02-10 00:53:00,
2013-02-09 20:08:00,35.4,25.0,30.34,WSW,254,0.0,1.0,66,0.00,,,0.00,0,weatherlink.com 1.10,2013-02-10 01:08:00,
2013-02-09 20:23:00,34.8,26.0,30.35,WSW,254,0.0,0.0,69,0.00,,,0.00,0,weatherlink.com 1.10,2013-02-10 01:23:00,
2013-02-09 20:38:00,34.0,26.0,30.35,WSW,254,0.0,0.0,73,0.00,,,0.00,0,weatherlink.com 1.10,2013-02-10 01:38:00,
2013-02-09 20:53:00,33.3,25.0,30.35,WSW,254,0.0,0.0,72,0.00,,,0.00,0,weatherlink.com 1.10,2013-02-10 01:53:00,
2013-02-09 21:08:00,32.7,25.0,30.36,WSW,254,0.0,0.0,74,0.00,,,0.00,0,weatherlink.com 1.10,2013-02-10 02:08:00,
2013-02-09 21:23:00,32.3,26.0,30.36,WSW,254,0.0,0.0,78,0.00,,,0.00,0,weatherlink.com 1.10,2013-02-10 02:23:00,
2013-02-09 21:38:00,31.5,26.0,30.37,WSW,254,0.0,0.0,80,0.00,,,0.00,0,weatherlink.com 1.10,2013-02-10 02:38:00,
2013-02-09 21:53:00,31.0,25.0,30.38,WSW,254,0.0,0.0,78,0.00,,,0.00,0,weatherlink.com 1.10,2013-02-10 02:53:00,
2013-02-09 22:08:00,30.3,24.0,30.37,WSW,254,0.0,0.0,78,0.00,,,0.00,0,weatherlink.com 1.10,2013-02-10 03:08:00,
2013-02-09 22:23:00,30.0,24.0,30.37,WSW,254,0.0,1.0,78,0.00,,,0.00,0,weatherlink.com 1.10,2013-02-10 03:23:00,
2013-02-09 22:38:00,29.9,24.0,30.37,WSW,254,0.0,0.0,79,0.00,,,0.00,0,weatherlink.com 1.10,2013-02-10 03:38:00,
2013-02-09 22:53:00,29.6,25.0,30.38,WSW,254,0.0,0.0,82,0.00,,,0.00,0,weatherlink.com 1.10,2013-02-10 03:53:00,
2013-02-09 23:08:00,29.1,24.0,30.38,WSW,254,0.0,0.0,82,0.00,,,0.00,0,weatherlink.com 1.10,2013-02-10 04:08:00,
2013-02-09 23:23:00,28.8,24.0,30.38,WSW,254,0.0,0.0,83,0.00,,,0.00,0,weatherlink.com 1.10,2013-02-10 04:23:00,
2013-02-09 23:38:00,28.4,24.0,30.38,WSW,254,0.0,0.0,84,0.00,,,0.00,0,weatherlink.com 1.10,2013-02-10 04:38:00,
2013-02-09 23:53:00,28.0,24.0,30.38,WSW,254,0.0,0.0,84,0.00,,,0.00,0,weatherlink.com 1.10,2013-02-10 04:53:00,